Station 41008 (LLNR 833) - GRAYS REEF - 40 NM Southeast of Savannah, GA Image indicating link to RSS feed of recent meteorological observations for station 41008


Conditions at 41008 as of
(8:30 pm EDT on 06/21/2024)
0030 GMT on 06/22/2024:
     

Click on the graph icon in the table below to see a time series plot of the last five days of that observation.

5-day plot - Wind Direction Wind Direction (WDIR): E ( 90 deg true )
5-day plot - Wind Speed Wind Speed (WSPD): 17.5 kts
5-day plot - Wind Gust Wind Gust (GST): 21.4 kts
5-day plot - Atmospheric Pressure Atmospheric Pressure (PRES):30.04 in
5-day plot - Air Temperature Air Temperature (ATMP): 81.1 °F
5-day plot - Water Temperature Water Temperature (WTMP): 81.3 °F
5-day plot - Dew Point Dew Point (DEWP): 78.8 °F
5-day plot - Heat Index Heat Index (HEAT): 89.4 °F
5-day plot - Wind Speed at 10 Meters Wind Speed at 10 meters (WSPD10M): 19.4 kts
5-day plot - Wind Speed at 20 Meters Wind Speed at 20 meters (WSPD20M): 19.4 kts
5-day plot -  Wind Speed, Wind Gust and Atmospheric Pressure Combined plot of Wind Speed, Gust, and Air Pressure
Supplemental Measurements
Highest 1-minute Wind Speed
Time (EDT)5-day plot - 1-Minute Wind Speed WSPD 5-day plot - 1-Minute Wind Direction WDIR
8:27 pm 17.5 kts-
Previous observations
TIME
(EDT)
5-day plot - Wind Direction
WDIR
 
5-day plot - Wind Speed
WSPD
kts
5-day plot - Wind Gust
GST
kts
5-day plot - Wave Height
WVHT
ft
5-day plot - Dominant Wave Period
DPD
sec
5-day plot - Average Wave Period
APD
sec
5-day plot - Mean Wave Direction
MWD
 
5-day plot - Atmospheric Pressure
PRES
in
5-day plot - Pressure Tendency
PTDY
in
5-day plot - Air Temperature
ATMP
°F
5-day plot - Water Temperature
WTMP
°F
5-day plot - Dew Point
DEWP
°F
5-day plot - Salinity
SAL
psu
5-day plot - Visibility
VIS
nmi
5-day plot - Tide (above MLLW)
TIDE
ft
2024-06-21 08:20 pm E 17.5 21.4 6.6 75.2 E30.04- 81.1 81.3 78.8---
2024-06-21 08:10 pm E 17.5 21.4 6.6-5.2 E30.04- 81.1 81.3 78.6---
2024-06-21 08:00 pm E 15.5 21.4----30.03+0.00 81.0 81.5 78.3---
2024-06-21 07:50 pm E 17.5 21.4 6.9 75.3ESE30.03- 81.0 81.5 78.4---
2024-06-21 07:40 pm E 17.5 23.3----30.03- 80.8 81.5 78.1---
2024-06-21 07:20 pm E 17.5 21.4 6.6 65.0 E30.03- 80.8 81.5 78.1---
2024-06-21 07:10 pm E 17.5 23.3 6.6-5.0 E30.03- 80.8 81.5 77.9---
2024-06-21 07:00 pm E 17.5 23.3----30.03-0.02 80.6 81.5 78.1---
2024-06-21 06:50 pm E 19.4 23.3 6.9 65.3 E30.03- 80.6 81.5 77.9---
2024-06-21 06:40 pm E 19.4 23.3 6.9-5.3 E30.02- 80.6 81.5 77.5---
2024-06-21 06:30 pm E 19.4 25.3----30.03- 80.4 81.5 77.5---
2024-06-21 06:20 pm E 19.4 23.3 6.2 85.3 E30.03- 80.1 81.5 77.4---
2024-06-21 06:10 pm E 17.5 23.3 6.2-5.3 E30.03- 79.5 81.5 78.1---
2024-06-21 06:00 pmENE 17.5 21.4----30.03-0.04 78.8 81.5 77.9---
2024-06-21 05:50 pm E 19.4 25.3 5.9 65.0 E30.03- 79.0 81.5 77.7---
2024-06-21 05:40 pmENE 19.4 23.3 5.9-5.0 E30.02- 81.7 81.5 78.4---
2024-06-21 05:30 pmENE 19.4 21.4----30.02- 81.7 81.5 78.6---
2024-06-21 05:20 pm NE 17.5 23.3 5.9 95.0 E30.03- 81.7 81.5 78.8---
2024-06-21 05:10 pm NE 17.5 23.3 5.9-5.0 E30.03- 81.5 81.5 79.0---
2024-06-21 05:00 pm NE 17.5 21.4----30.03-0.04 81.3 81.5 79.0---
2024-06-21 04:50 pm NE 17.5 21.4 6.2 85.3 E30.03- 81.0 81.7 79.3---
2024-06-21 04:40 pmNNE 17.5 21.4----30.03- 81.0 81.7 79.9---
2024-06-21 04:30 pmNNE 17.5 21.4----30.03- 80.8 81.7 79.7---
2024-06-21 04:20 pmNNE 17.5 23.3 6.2 65.0ENE30.03- 81.0 81.7 79.5---
2024-06-21 04:10 pmNNE 17.5 21.4 6.2-5.0ENE30.04- 80.8 81.7 79.2---
2024-06-21 04:00 pmNNE 17.5 19.4----30.05-0.04 80.6 81.7 79.2---
2024-06-21 03:50 pmNNE 17.5 21.4 6.2 85.1 E30.05- 80.4 81.7 79.2---
2024-06-21 03:40 pmNNE 17.5 19.4----30.06- 80.6 81.7 79.2---
2024-06-21 03:30 pmNNE 17.5 21.4----30.06- 80.6 81.7 79.2---
2024-06-21 03:20 pmNNE 17.5 21.4 6.2 65.1ENE30.07- 80.6 81.7 78.8---
2024-06-21 03:10 pm NE 17.5 21.4 6.2-5.1ENE30.07- 80.2 81.7 78.8---
2024-06-21 03:00 pmNNE 17.5 23.3----30.07-0.02 80.4 81.7 79.2---
2024-06-21 02:50 pm NE 17.5 21.4 6.6 65.3 E30.07- 80.2 81.7 79.0---
2024-06-21 02:40 pm NE 17.5 23.3 6.6-5.3 E30.07- 80.2 81.7 78.6---
2024-06-21 02:30 pmNNE 17.5 21.4----30.07- 80.4 81.5 78.8---
2024-06-21 02:20 pmNNE 17.5 23.3 6.6 65.2ENE30.07- 80.8 81.5 79.0---
2024-06-21 02:10 pmNNE 19.4 23.3 6.6-5.2ENE30.07- 80.8 81.5 78.8---
2024-06-21 02:00 pmNNE 19.4 25.3----30.07-0.03 80.6 81.5 79.0---
2024-06-21 01:50 pmNNE 21.4 25.3 6.6 65.1ENE30.07- 80.4 81.5 78.8---
2024-06-21 01:40 pm NE 21.4 25.3----30.07- 80.1 81.5 78.8---
2024-06-21 01:30 pmNNE 19.4 25.3----30.08- 80.2 81.5 79.2---
2024-06-21 01:20 pmNNE 21.4 29.1 6.9 65.2ENE30.08- 80.4 81.5 79.0---
2024-06-21 01:10 pmNNE 23.3 29.1 6.9-5.2ENE30.09- 81.0 81.5 78.6---
2024-06-21 01:00 pmNNE 21.4 25.3----30.09-0.03 81.0 81.5 78.6---
2024-06-21 12:50 pmNNE 21.4 25.3 6.9 95.3 E30.09- 81.0 81.5 78.4---
2024-06-21 12:40 pmNNE 21.4 29.1----30.09- 80.8 81.5 78.3---
2024-06-21 12:30 pmNNE 21.4 29.1----30.09- 81.0 81.5 78.3---
2024-06-21 12:20 pmNNE 21.4 27.2 6.6 105.1 E30.09- 80.8 81.5 78.1---
2024-06-21 12:10 pmNNE 21.4 27.2 6.6-5.1 E30.09- 80.6 81.5 78.1---
2024-06-21 12:00 pmNNE 23.3 27.2----30.09-0.02 80.6 81.5 77.9---
2024-06-21 11:50 amNNE 23.3 29.1 5.9 65.1ENE30.09- 80.8 81.5 77.7---
2024-06-21 11:40 amNNE 21.4 27.2----30.09- 80.4 81.5 77.9---
2024-06-21 11:30 amNNE 21.4 27.2----30.09- 80.8 81.5 77.9---
2024-06-21 11:20 amNNE 21.4 25.3 6.2 55.1 NE30.10- 80.6 81.5 77.5---
2024-06-21 11:10 amNNE 21.4 29.1 6.2-5.1 NE30.10- 80.8 81.5 77.7---
2024-06-21 11:00 amNNE 21.4 27.2----30.10-0.01 80.8 81.5 77.5---
2024-06-21 10:50 amNNE 21.4 25.3 6.6 95.4 E30.10- 80.8 81.5 77.4---
2024-06-21 10:40 amNNE 21.4 25.3 6.6-5.4 E30.11- 80.8 81.5 77.4---
2024-06-21 10:30 amNNE 21.4 25.3----30.11- 80.6 81.5 77.2---
2024-06-21 10:20 amNNE 21.4 27.2 6.6 65.3ENE30.10- 80.6 81.5 77.2---
2024-06-21 10:10 amNNE 19.4 25.3 6.6-5.3ENE30.11- 80.6 81.5 77.2---
2024-06-21 10:00 amNNE 19.4 25.3----30.11+0.00 80.6 81.5 77.0---
2024-06-21 09:50 amNNE 19.4 25.3 6.2 85.3ESE30.10- 80.4 81.5 77.0---
2024-06-21 09:40 amNNE 19.4 23.3----30.10- 80.6 81.5 77.0---
2024-06-21 09:30 amNNE 21.4 25.3----30.11- 80.6 81.5 76.8---
2024-06-21 09:20 amNNE 21.4 25.3 6.6 85.4 E30.11- 80.6 81.5 76.8---
2024-06-21 09:10 amNNE 19.4 25.3 6.6-5.4 E30.11- 80.8 81.5 77.0---
2024-06-21 09:00 amNNE 19.4 23.3----30.11+0.00 80.8 81.5 77.0---
2024-06-21 08:50 amNNE 19.4 23.3 6.9 95.3 E30.11- 80.8 81.5 76.6---
2024-06-21 08:40 amNNE 19.4 25.3----30.11- 80.8 81.5 76.6---
2024-06-21 08:30 am NE 19.4 25.3----30.11- 80.8 81.5 76.5---
2024-06-21 08:20 am NE 19.4 23.3 6.9 75.4 E30.11- 80.8 81.5 76.6---
2024-06-21 08:10 am NE 19.4 25.3----30.11- 80.8 81.5 76.5---
2024-06-21 08:00 am NE 19.4 25.3----30.11+0.00 80.8 81.3 76.5---
2024-06-21 07:50 am NE 19.4 25.3 7.2 105.5 E30.11- 80.8 81.5 76.5---
2024-06-21 07:40 am NE 19.4 25.3----30.11- 80.6 81.3 75.9---
2024-06-21 07:30 am NE 19.4 23.3----30.11- 80.6 81.3 76.3---
2024-06-21 07:20 am NE 19.4 25.3 6.6 95.4ESE30.11- 80.6 81.3 76.1---
2024-06-21 07:10 am NE 21.4 25.3 6.6-5.4ESE30.11- 80.4 81.3 75.9---
2024-06-21 07:00 am NE 19.4 27.2----30.11+0.00 80.4 81.3 76.1---
2024-06-21 06:50 am NE 19.4 25.3 6.6 85.4ESE30.11- 80.4 81.3 76.3---
2024-06-21 06:40 am NE 21.4 25.3----30.11- 80.4 81.3 75.9---
2024-06-21 06:30 am NE 19.4 25.3----30.11- 80.2 81.3 75.7---
2024-06-21 06:20 am NE 19.4 23.3 7.2 95.4ESE30.11- 80.2 81.3 75.7---
2024-06-21 06:10 am NE 17.5 21.4 7.2-5.4ESE30.11- 80.4 81.3 75.9---
2024-06-21 06:00 am NE 19.4 23.3----30.11-0.02 80.4 81.3 75.2---
2024-06-21 05:50 am NE 19.4 25.3 6.2 95.2 E30.11- 80.4 81.3 75.0---
2024-06-21 05:40 am NE 21.4 25.3----30.11- 80.4 81.3 74.8---
2024-06-21 05:30 am NE 19.4 25.3----30.11- 80.4 81.3 75.6---
2024-06-21 05:20 am NE 19.4 23.3 6.2-5.3 E30.10- 80.2 81.3 75.7---
2024-06-21 05:10 am NE 19.4 25.3 6.2-5.3 E30.11- 80.2 81.3 75.2---
2024-06-21 05:00 am NE 19.4 25.3----30.11-0.05 80.4 81.3 75.4---
2024-06-21 04:50 am NE 19.4 25.3 6.6 95.4 E30.11- 80.2 81.5 75.6---
2024-06-21 04:40 am NE 19.4 23.3----30.11- 80.4 81.3 75.6---
2024-06-21 04:30 am NE 17.5 23.3----30.11- 80.2 81.5 75.6---
2024-06-21 04:20 am NE 17.5 21.4 6.6 95.4 E30.11- 80.2 81.5 75.6---
2024-06-21 04:10 am NE 17.5 21.4 6.6-5.4 E30.11- 80.2 81.5 75.6---
2024-06-21 04:00 am NE 17.5 21.4----30.11-0.06 80.2 81.5 75.7---
2024-06-21 03:50 am NE 17.5 23.3 6.2 75.3ESE30.12- 80.2 81.5 75.7---
2024-06-21 03:40 am NE 17.5 23.3----30.12- 80.2 81.5 75.6---
2024-06-21 03:30 am NE 17.5 23.3----30.13- 80.2 81.5 75.2---
2024-06-21 03:20 am NE 17.5 21.4 6.6 95.5ESE30.13- 80.2 81.5 75.2---
2024-06-21 03:10 am NE 17.5 23.3 6.6-5.5ESE30.13- 80.2 81.5 75.4---
2024-06-21 03:00 am NE 17.5 21.4----30.14-0.05 80.2 81.5 75.7---
2024-06-21 02:50 am NE 17.5 23.3 5.9 85.2ESE30.14- 80.1 81.5 75.4---
2024-06-21 02:40 amENE 17.5 23.3 5.9-5.2ESE30.14- 80.1 81.5 75.4---
2024-06-21 02:30 am NE 17.5 23.3----30.14- 80.1 81.5 75.2---
2024-06-21 02:20 am NE 17.5 21.4 5.9 95.4 E30.14- 80.2 81.5 75.0---
2024-06-21 02:10 am NE 17.5 21.4 5.9-5.4 E30.15- 80.1 81.5 74.5---
2024-06-21 02:00 am NE 17.5 21.4----30.15-0.03 80.1 81.5 74.5---
2024-06-21 01:50 am NE 15.5 19.4 5.9 95.4 E30.16- 79.9 81.5 74.3---
2024-06-21 01:40 am NE 17.5 21.4----30.16- 79.9 81.5 73.8---
2024-06-21 01:30 am NE 17.5 19.4----30.16- 79.9 81.5 73.9---
2024-06-21 01:20 am NE 17.5 21.4 5.9 95.3 E30.16- 79.7 81.5 73.8---
2024-06-21 01:10 am NE 17.5 21.4 5.9-5.3 E30.17- 79.7 81.5 74.3---
2024-06-21 01:00 am NE 17.5 21.4----30.18+0.00 79.7 81.5 74.1---
2024-06-21 12:50 am NE 17.5 21.4 6.2 105.4 E30.18- 79.7 81.5 74.3---
2024-06-21 12:40 am NE 17.5 21.4 6.2-5.4 E30.18- 79.7 81.5 74.5---
2024-06-21 12:30 amENE 17.5 21.4----30.18- 79.9 81.7 74.7---
2024-06-21 12:20 am NE 17.5 21.4 6.2 95.3 E30.19- 79.7 81.7 74.5---
2024-06-21 12:10 am NE 17.5 21.4 6.2-5.3 E30.19- 79.7 81.7 74.1---
2024-06-21 12:00 am NE 17.5 21.4----30.19+0.03 79.9 81.7 74.1---
2024-06-20 11:50 pm NE 17.5 21.4 6.2 95.4 E30.19- 79.9 81.7 73.8---
2024-06-20 11:40 pm NE 17.5 23.3 6.2-5.4 E30.19- 79.9 81.7 73.2---
2024-06-20 11:30 pm NE 17.5 21.4----30.19- 79.9 81.7 72.5---
2024-06-20 11:20 pm NE 17.5 21.4 5.9 95.4 E30.19- 80.1 81.7 73.4---
2024-06-20 11:10 pmENE 17.5 21.4 5.9-5.4 E30.18- 80.1 81.7 73.2---
2024-06-20 11:00 pm NE 19.4 23.3----30.19+0.02 79.9 81.7 72.7---
2024-06-20 10:50 pm NE 19.4 25.3 5.9 105.3 E30.18- 80.1 81.7 72.9---
2024-06-20 10:40 pm NE 19.4 23.3 5.9-5.3 E30.18- 80.1 81.7 72.0---
2024-06-20 10:30 pmENE 19.4 25.3----30.18- 80.2 81.7 72.3---
2024-06-20 10:20 pm NE 19.4 25.3 6.2 105.2 E30.18- 80.2 81.7 72.3---
2024-06-20 10:10 pmENE 19.4 25.3 6.2-5.2 E30.18- 80.2 81.7 72.7---
2024-06-20 10:00 pmENE 19.4 25.3----30.17+0.01 80.2 81.7 72.7---
2024-06-20 09:50 pm NE 19.4 25.3 6.2 105.3 E30.17- 80.2 81.7 72.3---
2024-06-20 09:40 pm NE 19.4 25.3----30.17- 79.9 81.7 73.2---
2024-06-20 09:30 pm NE 19.4 23.3----30.16- 80.1 81.7 73.6---
2024-06-20 09:20 pm NE 19.4 23.3 5.9 75.3ESE30.16- 80.2 81.7 73.0---
2024-06-20 09:10 pm NE 19.4 23.3 5.9-5.3ESE30.16- 80.2 81.7 73.8---
2024-06-20 09:00 pm NE 17.5 23.3----30.16-0.01 80.2 81.7 73.6---
2024-06-20 08:50 pm NE 17.5 23.3 5.9 95.2 E30.16- 80.2 81.7 73.8---
2024-06-20 08:40 pm NE 17.5 23.3----30.16- 80.2 81.7 73.4---
2024-06-20 08:30 pm NE 17.5 21.4----30.16- 80.4 81.7 73.0---
2024-06-20 08:20 pm NE 17.5 23.3 5.9 105.2 E30.16- 80.4 81.7 73.0---
2024-06-20 08:10 pmENE 19.4 23.3 5.9-5.2 E30.16- 80.4 81.7 73.0---
2024-06-20 08:00 pm NE 17.5 23.3----30.16-0.03 80.6 81.7 72.7---
2024-06-20 07:50 pmENE 17.5 21.4 6.6 105.5 E30.16- 80.6 81.7 72.7---

Detailed Wave Summary
for 41008 as of
(8:10 pm EDT on 06/21/2024)
0010 GMT on 06/22/2024:

These wave data are displayed in rounded times.

     

Click on the graph icon in the table below to see a time series plot of the last five days of that observation.

5-day plot - Significant Wave Height Significant Wave Height (WVHT): 6.6 ft
5-day plot - Swell Height Swell Height (SwH): 3.0 ft
5-day plot - Swell Period Swell Period (SwP): 10.0 sec
5-day plot - Swell Direction Swell Direction (SwD): E
5-day plot - Wind Wave Height Wind Wave Height (WWH): 5.9 ft
5-day plot - Wind Wave Period Wind Wave Period (WWP): 6.7 sec
5-day plot - Wind Wave Direction Wind Wave Direction (WWD): E
5-day plot - Wave Steepness Wave Steepness (STEEPNESS): STEEP
5-day plot - Average Wave Period Average Wave Period (APD): 5.2 sec
Previous observations
TIME
(EDT)
5-day plot - Wave Height
WVHT
ft
5-day plot - Swell Height
SwH
ft
5-day plot - Swell Period
SwP
sec
5-day plot - Swell Direction
SwD
 
5-day plot - Wind Wave Height
WWH
ft
5-day plot - Wind Wave Period
WWP
sec
5-day plot - Wind Wave Direction
WWD
 
5-day plot - Wave Steepness
STEEPNESS
 
5-day plot - Average Wave Period
APD
sec
2024-06-21 07:40 pm 6.9 2.3 10.0ENE 6.6 6.7 ESEVERY_STEEP 5.3
2024-06-21 07:10 pm 6.6 2.3 10.0 E 6.2 5.9 EVERY_STEEP 5.0
2024-06-21 06:40 pm 6.9 0.0-- 6.9 5.9 EVERY_STEEP 5.3
2024-06-21 06:10 pm 6.2 3.6 8.3 E 5.2 6.7 ESE AVERAGE 5.3
2024-06-21 05:40 pm 5.9 3.0 8.3 E 4.9 6.2 EVERY_STEEP 5.0
2024-06-21 05:10 pm 5.9 3.3 9.1 E 4.9 7.1 E AVERAGE 5.0
2024-06-21 04:40 pm 6.2 0.0-- 6.2 7.7 E STEEP 5.3
2024-06-21 04:10 pm 6.2 0.0-- 6.2 5.6 ENEVERY_STEEP 5.0
2024-06-21 03:40 pm 6.2 2.0 10.0 E 5.9 7.7 E STEEP 5.1
2024-06-21 03:10 pm 6.2 3.0 9.1 E 5.6 5.6 ENEVERY_STEEP 5.1
2024-06-21 02:40 pm 6.6 2.3 14.8 NE 5.9 6.2 EVERY_STEEP 5.3
2024-06-21 02:10 pm 6.6 2.6 9.1 E 5.9 5.9 ENEVERY_STEEP 5.2
2024-06-21 01:40 pm 6.6 3.6 9.1 E 5.6 5.9 ENEVERY_STEEP 5.1
2024-06-21 01:10 pm 6.9 2.6 9.1 E 6.2 5.9 ENEVERY_STEEP 5.2
2024-06-21 12:40 pm 6.9 3.6 9.1 E 5.9 5.6 NE AVERAGE 5.3
2024-06-21 12:10 pm 6.6 3.0 10.0 E 5.9 7.1 E AVERAGE 5.1
2024-06-21 11:40 am 5.9 2.0 10.0 E 5.6 6.2 ENEVERY_STEEP 5.1
2024-06-21 11:10 am 6.2 3.0 9.1 E 5.2 5.3 NEVERY_STEEP 5.1
2024-06-21 10:40 am 6.6 3.0 9.1 E 5.9 6.2 ENE AVERAGE 5.4
2024-06-21 10:10 am 6.6 3.0 9.1 E 5.9 6.2 ENEVERY_STEEP 5.3
2024-06-21 09:40 am 6.2 3.3 9.1 E 5.6 7.7 ESE STEEP 5.3
2024-06-21 09:10 am 6.6 3.3 10.0 E 5.9 7.7 E STEEP 5.4
2024-06-21 08:40 am 6.9 3.3 9.1 E 5.9 6.2 E AVERAGE 5.3
2024-06-21 08:10 am 6.9 2.6 10.0ESE 6.2 7.1 E STEEP 5.4
2024-06-21 07:40 am 7.2 3.6 10.0 E 6.2 5.6 ENE AVERAGE 5.5
2024-06-21 07:10 am 6.6 3.6 9.1ESE 5.6 7.1 ESE AVERAGE 5.4
2024-06-21 06:40 am 6.6 3.3 10.0 E 5.9 7.7 ESE STEEP 5.4
2024-06-21 06:10 am 7.2 3.9 9.1ESE 6.2 5.3 ENE AVERAGE 5.4
2024-06-21 05:40 am 6.2 3.3 9.1 E 5.2 5.6 E AVERAGE 5.2
2024-06-21 05:10 am 6.2 3.6 9.1 E 5.2 5.3 ENE AVERAGE 5.3
2024-06-21 04:40 am 6.6 3.6 9.1 E 5.2 6.7 ESE AVERAGE 5.4
2024-06-21 04:10 am 6.6 3.9 9.1 E 5.2 7.1 ESE AVERAGE 5.4
2024-06-21 03:40 am 6.2 3.3 9.1 E 5.2 7.1 ESE STEEP 5.3
2024-06-21 03:10 am 6.6 3.9 9.1ESE 5.2 5.9 ENE AVERAGE 5.5
2024-06-21 02:40 am 5.9 3.6 8.3ESE 4.6 5.6 E AVERAGE 5.2
2024-06-21 02:10 am 5.9 3.6 9.1 E 4.6 5.9 E AVERAGE 5.4
2024-06-21 01:40 am 5.9 3.9 9.1 E 4.6 6.2 E AVERAGE 5.4
2024-06-21 01:10 am 5.9 3.0 9.1 E 5.2 5.6 ENE AVERAGE 5.3
2024-06-21 12:40 am 6.2 3.6 10.0 E 4.9 5.6 ENE AVERAGE 5.4
2024-06-21 12:10 am 6.2 3.3 9.1 E 5.2 5.6 ENE AVERAGE 5.3
2024-06-20 11:40 pm 6.2 3.9 9.1 E 4.9 5.9 E AVERAGE 5.4
2024-06-20 11:10 pm 5.9 3.0 9.1 E 5.2 5.9 E AVERAGE 5.4
2024-06-20 10:40 pm 5.9 3.3 10.0 E 4.9 5.3 ENE AVERAGE 5.3
2024-06-20 10:10 pm 6.2 3.3 10.0 E 5.2 5.6 ENE AVERAGE 5.2
2024-06-20 09:40 pm 6.2 3.3 10.0 E 5.2 5.3 E AVERAGE 5.3
2024-06-20 09:10 pm 5.9 3.0 10.0 E 4.9 7.1 ESE STEEP 5.3
2024-06-20 08:40 pm 5.9 3.0 9.1 E 4.9 6.2 E AVERAGE 5.2
2024-06-20 08:10 pm 5.9 3.3 10.0 E 4.9 7.1 ESE AVERAGE 5.2

Plot of wave energy versus frequency (and period)